| time (UTC) | temp F | wind direction | speed MPH | gust MPH | rain 1hr in | rain 24hr in | rain mn in | humidity % | barometer mb |
| 20260506091518 | 18 | 293 | 0.0 | 0.0 | 0.00 | 0.00 | 0.00 | 71 | 1020.3 |
| 20260506090012 | 19 | 293 | 0.0 | 0.0 | 0.00 | 0.00 | 0.00 | 68 | 1020.4 |
| 20260506084510 | 20 | 293 | 0.0 | 2.0 | 0.00 | 0.00 | 0.00 | 68 | 1020.5 |
| 20260506083009 | 20 | 277 | 0.0 | 0.0 | 0.00 | 0.00 | 0.00 | 68 | 1020.6 |
| 20260506081502 | 20 | 295 | 0.0 | 0.0 | 0.00 | 0.00 | 0.00 | 69 | 1020.7 |
| 20260506073055 | 21 | 288 | 0.0 | 0.0 | 0.00 | 0.00 | 0.00 | 65 | 1021.0 |
| 20260506071554 | 22 | 288 | 0.0 | 0.0 | 0.00 | 0.00 | 0.00 | 65 | 1021.0 |
| 20260506061543 | 23 | 260 | 0.0 | 0.0 | 0.00 | 0.00 | 0.00 | 61 | 1021.3 |
| 20260506044533 | 25 | 286 | 0.0 | 1.0 | 0.00 | 0.00 | 0.00 | 57 | 1021.4 |
| 20260506043028 | 26 | 286 | 1.0 | 1.0 | 0.00 | 0.00 | 0.00 | 56 | 1021.4 |
| 20260506041527 | 27 | 293 | 0.0 | 1.0 | 0.00 | 0.00 | 0.00 | 55 | 1021.5 |
| 20260506040035 | 27 | 297 | 0.0 | 1.0 | 0.00 | 0.00 | 0.00 | 52 | 1021.6 |
| 20260506034522 | 29 | 297 | 0.0 | 1.0 | 0.00 | 0.00 | 0.00 | 50 | 1021.4 |
| 20260506033050 | 30 | 357 | 0.0 | 1.0 | 0.00 | 0.00 | 0.00 | 48 | 1021.4 |
| 20260506031547 | 33 | 328 | 0.0 | 1.0 | 0.00 | 0.00 | 0.00 | 46 | 1021.3 |
| 20260506030015 | 37 | 360 | 1.0 | 3.0 | 0.00 | 0.00 | 0.00 | 42 | 1021.2 |
| 20260506024515 | 39 | 18 | 2.0 | 3.0 | 0.00 | 0.00 | 0.00 | 40 | 1021.3 |
| 20260506023056 | 42 | 7 | 2.0 | 6.0 | 0.00 | 0.00 | 0.00 | 38 | 1021.3 |
| 20260506021554 | 44 | 25 | 7.0 | 11.0 | 0.00 | 0.00 | 0.00 | 36 | 1021.1 |
| 20260506020042 | 44 | 22 | 8.0 | 12.0 | 0.00 | 0.00 | 0.00 | 36 | 1021.0 |
| 20260506014544 | 45 | 22 | 10.0 | 17.0 | 0.00 | 0.00 | 0.00 | 35 | 1021.0 |
| 20260506013039 | 46 | 352 | 9.0 | 16.0 | 0.00 | 0.00 | 0.00 | 34 | 1021.0 |
| 20260506011539 | 46 | 25 | 12.0 | 18.0 | 0.00 | 0.00 | 0.00 | 33 | 1020.9 |
| 20260506010047 | 47 | 36 | 13.0 | 19.0 | 0.00 | 0.00 | 0.00 | 33 | 1020.8 |
| 20260506004539 | 48 | 346 | 10.0 | 18.0 | 0.00 | 0.00 | 0.00 | 32 | 1020.8 |
| 20260506003036 | 48 | 22 | 13.0 | 20.0 | 0.00 | 0.00 | 0.00 | 33 | 1020.7 |
| 20260506001635 | 48 | 20 | 14.0 | 19.0 | 0.00 | 0.00 | 0.00 | 33 | 1020.7 |
| 20260506000032 | 49 | 347 | 8.0 | 21.0 | 0.00 | 0.00 | 0.00 | 32 | 1020.6 |
| 20260505234554 | 49 | 16 | 17.0 | 25.0 | 0.00 | 0.00 | 0.00 | 32 | 1020.7 |
| 20260505233037 | 49 | 338 | 8.0 | 20.0 | 0.00 | 0.00 | 0.00 | 32 | 1020.7 |
| 20260505231532 | 49 | 337 | 12.0 | 23.0 | 0.00 | 0.00 | 0.00 | 32 | 1020.7 |
| 20260505224558 | 49 | 12 | 14.0 | 20.0 | 0.00 | 0.00 | 0.00 | 32 | 1020.7 |
| 20260505223055 | 49 | 323 | 12.0 | 18.0 | 0.00 | 0.00 | 0.00 | 32 | 1020.8 |
| 20260505221555 | 49 | 327 | 11.0 | 19.0 | 0.00 | 0.00 | 0.00 | 31 | 1020.8 |
| 20260505220053 | 49 | 327 | 8.0 | 20.0 | 0.00 | 0.00 | 0.00 | 31 | 1020.7 |
| 20260505214613 | 49 | 338 | 12.0 | 20.0 | 0.00 | 0.00 | 0.00 | 30 | 1020.6 |
| 20260505213059 | 49 | 332 | 11.0 | 22.0 | 0.00 | 0.00 | 0.00 | 32 | 1020.6 |
| 20260505211549 | 49 | 352 | 10.0 | 23.0 | 0.00 | 0.00 | 0.00 | 33 | 1020.7 |
| 20260505210056 | 49 | 5 | 15.0 | 21.0 | 0.00 | 0.00 | 0.00 | 32 | 1020.7 |
| 20260505204556 | 49 | 311 | 7.0 | 24.0 | 0.00 | 0.00 | 0.00 | 34 | 1020.9 |
| 20260505203051 | 49 | 328 | 12.0 | 22.0 | 0.00 | 0.00 | 0.00 | 35 | 1021.0 |
| 20260505201545 | 49 | 345 | 14.0 | 21.0 | 0.00 | 0.00 | 0.00 | 35 | 1021.1 |
| 20260505200058 | 48 | 340 | 14.0 | 24.0 | 0.00 | 0.00 | 0.00 | 35 | 1021.2 |
| 20260505194548 | 49 | 4 | 14.0 | 22.0 | 0.00 | 0.00 | 0.00 | 35 | 1021.2 |
| 20260505193010 | 49 | 338 | 12.0 | 22.0 | 0.00 | 0.00 | 0.00 | 35 | 1021.1 |
| 20260505191509 | 47 | 310 | 13.0 | 23.0 | 0.00 | 0.00 | 0.00 | 33 | 1021.2 |
| 20260505190005 | 48 | 10 | 12.0 | 25.0 | 0.00 | 0.00 | 0.00 | 37 | 1021.3 |
| 20260505184505 | 48 | 332 | 13.0 | 22.0 | 0.00 | 0.00 | 0.00 | 37 | 1021.2 |
| 20260505183010 | 48 | 328 | 11.0 | 21.0 | 0.00 | 0.00 | 0.00 | 37 | 1021.3 |
| 20260505181503 | 47 | 350 | 9.0 | 19.0 | 0.00 | 0.00 | 0.00 | 37 | 1021.3 |
| 20260505180109 | 47 | 331 | 9.0 | 20.0 | 0.00 | 0.00 | 0.00 | 39 | 1021.3 |
| 20260505174605 | 47 | 326 | 11.0 | 18.0 | 0.00 | 0.00 | 0.00 | 40 | 1021.2 |
| 20260505173057 | 46 | 303 | 11.0 | 21.0 | 0.00 | 0.00 | 0.00 | 39 | 1021.3 |
| 20260505171556 | 46 | 348 | 10.0 | 24.0 | 0.00 | 0.00 | 0.00 | 45 | 1021.4 |
| 20260505170051 | 46 | 314 | 11.0 | 24.0 | 0.00 | 0.00 | 0.00 | 43 | 1021.4 |
| 20260505164550 | 44 | 347 | 11.0 | 19.0 | 0.00 | 0.00 | 0.00 | 46 | 1021.5 |
| 20260505163052 | 44 | 342 | 11.0 | 19.0 | 0.00 | 0.00 | 0.00 | 45 | 1021.6 |
| 20260505161549 | 44 | 345 | 8.0 | 16.0 | 0.00 | 0.00 | 0.00 | 51 | 1021.6 |
| 20260505153041 | 42 | 356 | 8.0 | 13.0 | 0.00 | 0.00 | 0.00 | 52 | 1021.8 |
| 20260505151535 | 40 | 324 | 5.0 | 13.0 | 0.00 | 0.00 | 0.00 | 59 | 1021.7 |
| 20260505124515 | 34 | 304 | 0.0 | 3.0 | 0.00 | 0.00 | 0.00 | 74 | 1021.1 |
| 20260505123015 | 33 | 303 | 0.0 | 3.0 | 0.00 | 0.00 | 0.00 | 74 | 1020.9 |
| 20260505121514 | 32 | 312 | 0.0 | 3.0 | 0.00 | 0.00 | 0.00 | 75 | 1020.9 |
| 20260505120016 | 30 | 323 | 0.0 | 1.0 | 0.00 | 0.00 | 0.00 | 76 | 1020.8 |
| 20260505114507 | 31 | 303 | 0.0 | 0.0 | 0.00 | 0.00 | 0.00 | 72 | 1020.9 |
| 20260505113003 | 33 | 328 | 0.0 | 1.0 | 0.00 | 0.00 | 0.00 | 68 | 1020.8 |
| 20260505111600 | 34 | 342 | 2.0 | 6.0 | 0.00 | 0.00 | 0.00 | 67 | 1020.8 |
| 20260505101547 | 37 | 354 | 4.0 | 7.0 | 0.00 | 0.00 | 0.00 | 58 | 1020.5 |
| 20260505100047 | 36 | 16 | 4.0 | 7.0 | 0.00 | 0.00 | 0.00 | 59 | 1020.5 |
| 20260505094514 | 37 | 15 | 3.0 | 4.0 | 0.00 | 0.00 | 0.00 | 62 | 1020.4 |
| 20260505093023 | 37 | 344 | 2.0 | 6.0 | 0.00 | 0.00 | 0.00 | 61 | 1020.2 |